Temperature
20 20 20 20 20 20 19 19 19 19 19 18 18 17 17 17 17 17 17 17 17 16 16 16 16 16 16 16 15 15 15 15 15 14 14 14 13 13 13 13 13 13 13
20 20 20 20 20 20 19 19 19 19 19 18 18 18 17 17 17 17 17 16 16 16 16 16 16 16 16 15 15 15 15 15 15 14 14 13 13 13 13 13 12 12 12
20 20 20 20 20 20 19 19 19 19 19 18 18 18 17 17 17 17 17 16 16 16 16 16 16 16 15 15 15 15 15 15 14 14 13 13 13 13 12 12 12 12 12
20 20 20 20 20 20 19 19 19 19 18 18 18 18 17 17 17 17 17 16 16 16 16 16 15 15 15 15 15 15 14 14 14 14 14 13 13 12 12 12 12 12 12
20 20 20 20 20 20 19 19 19 19 18 18 18 17 17 17 17 17 17 16 16 16 16 16 15 15 15 15 15 15 14 14 14 14 13 13 13 12 12 12 12 12 12
20 20 20 20 20 19 19 19 19 19 18 18 18 18 17 17 17 17 17 16 16 16 16 15 15 15 15 15 15 15 14 14 13 13 13 13 13 13 12 12 12 12 12
20 20 20 19 19 19 19 19 19 18 18 18 18 18 17 17 17 17 17 16 16 16 15 15 15 15 15 15 15 14 14 14 13 13 13 13 13 12 12 12 12 12 12
19 19 19 19 19 19 19 18 18 18 18 18 18 18 17 17 17 17 17 16 16 15 15 15 15 14 14 14 14 14 14 14 13 13 13 13 12 12 12 12 12 11 11
19 19 19 18 18 18 19 18 18 18 18 18 17 17 17 17 17 17 16 16 15 15 15 15 14 14 14 14 14 13 13 13 13 13 13 12 12 12 12 12 11 11 12
19 19 18 18 18 18 18 18 18 18 17 17 17 17 17 17 16 16 16 16 15 15 15 14 14 14 14 14 13 13 13 13 13 13 12 12 12 12 12 11 11 11 12
18 18 18 18 18 18 17 18 17 17 17 17 17 17 17 16 16 16 16 15 15 14 14 14 14 14 14 14 13 13 13 12 12 12 12 12 12 11 11 11 11 11 11
18 18 18 18 17 17 17 17 17 17 17 16 16 16 16 16 16 16 16 15 15 14 14 14 14 14 14 13 13 13 12 12 12 12 12 12 12 11 11 11 11 11 11
17 17 17 17 17 17 17 16 16 16 16 16 16 16 16 16 16 16 15 15 15 14 14 14 13 13 13 13 12 12 12 12 12 12 12 12 12 11 11 11 11 11 11
16 16 16 16 16 16 16 16 16 16 16 16 16 15 15 15 15 15 15 14 14 14 13 13 13 13 12 12 12 12 11 11 11 11 11 11 11 11 11 11 10 10 10
16 16 16 16 16 16 16 16 16 16 16 16 15 15 15 15 15 15 14 14 14 13 13 13 12 12 12 12 11 11 11 11 11 11 11 11 11 11 10 10 10 10 10
15 15 15 15 15 15 15 15 16 15 15 15 15 15 15 15 14 14 14 13 13 13 12 12 12 12 12 12 11 11 11 11 11 11 11 11 10 10 10 10 10 10 10
15 15 15 15 15 15 15 15 15 15 15 15 15 15 14 14 14 13 13 13 12 12 12 12 12 12 11 12 11 11 11 11 11 10 10 10 10 10 10 10 9 9 9
14 14 14 14 14 14 14 14 14 14 14 14 15 14 14 14 13 13 13 12 12 12 12 12 12 12 11 11 11 11 11 11 10 10 10 10 10 9 9 9 9 9 9
14 14 14 14 14 14 14 14 14 14 14 14 14 14 13 13 13 12 12 12 12 12 12 12 12 11 11 11 11 10 10 10 10 10 10 10 9 9 9 9 9 9 9
14 14 14 14 14 14 14 14 14 14 14 13 13 13 13 12 12 12 12 12 12 12 11 11 11 11 11 11 10 10 10 10 10 9 9 9 9 9 9 9 9 9 9
13 13 13 13 13 13 13 13 13 13 13 13 13 12 12 12 12 12 12 12 12 11 11 11 11 11 10 10 10 10 10 10 9 9 9 9 9 9 9 9 9 8 8
13 13 13 13 13 13 13 13 13 13 13 12 12 12 12 11 11 11 11 11 11 11 11 10 10 10 10 10 10 10 10 9 9 9 9 9 9 9 8 8 8 8 8
13 13 13 13 12 12 12 12 12 12 12 12 12 12 11 11 11 11 11 11 11 11 10 10 10 10 10 10 10 10 9 9 9 9 9 9 9 9 8 8 8 8 8
12 12 12 12 12 12 12 12 12 12 12 12 11 11 11 11 11 11 10 10 10 10 10 10 10 10 10 9 9 9 9 9 9 9 8 8 8 8 8 8 8 8 8
12 12 12 12 12 12 12 12 12 11 11 11 11 11 11 11 10 10 10 10 10 10 10 9 9 9 9 9 9 9 9 9 9 8 8 8 8 8 8 8 8 7 7
12 12 12 12 12 12 12 11 11 11 11 11 11 11 10 10 10 10 10 9 9 9 9 9 9 9 9 9 9 9 9 9 8 8 8 8 8 8 7 7 7 7 7
Wind_Speed
8 8 7 7 7 7 6 6 6 5 5 5 5 4 4 4 3 3 3 3 3 3 3 3 3 3 3 3 3 3 3 3 3 2 2 2 2 2 3 3 4 4 4
8 8 8 7 7 7 7 6 6 6 6 6 5 5 5 4 4 4 4 3 3 3 3 3 3 3 4 3 3 3 3 3 4 3 3 3 3 4 4 4 4 4 3
9 9 8 8 8 8 7 7 6 6 6 5 5 5 4 4 4 5 4 4 4 4 3 3 3 3 4 3 3 3 3 4 4 4 4 3 3 4 4 4 3 3 4
9 9 9 8 8 7 7 7 7 6 6 6 5 5 4 4 4 4 4 4 4 4 3 3 3 4 4 4 4 4 3 4 4 5 4 4 4 5 5 4 4 4 4
8 8 8 8 7 7 7 7 6 6 6 6 5 5 5 5 4 4 5 5 4 4 3 3 3 2 2 3 3 4 4 5 5 5 5 4 5 5 5 5 4 4 4
7 7 7 6 7 7 7 7 7 7 6 6 6 6 6 5 3 3 5 5 5 5 4 4 4 4 3 3 2 3 4 6 6 6 6 6 6 6 5 5 4 4 4
7 7 6 7 7 7 8 7 7 7 7 6 6 7 7 5 6 6 6 5 5 5 5 4 4 3 5 4 5 6 5 5 6 7 6 6 6 6 6 7 6 6 4
7 7 7 7 7 7 8 8 8 7 7 7 7 7 7 6 8 7 6 7 6 5 6 5 4 4 3 4 5 5 5 6 6 6 5 5 5 5 6 7 6 6 5
7 7 7 7 7 7 7 7 7 7 7 7 7 7 7 6 7 7 7 6 6 6 6 5 5 5 3 4 5 5 5 4 4 3 3 3 3 5 6 6 6 6 6
6 6 6 7 7 7 7 6 6 7 7 7 7 7 7 6 7 8 8 6 6 6 5 6 5 5 4 5 6 5 6 5 4 5 5 6 7 8 10 8 7 7 6
3 4 4 5 6 6 6 5 5 6 6 6 6 6 6 6 7 9 9 7 6 6 6 5 4 7 6 6 7 6 4 4 4 5 5 6 6 7 8 9 8 7 7
2 3 3 4 5 5 5 5 5 5 6 6 6 6 5 6 6 8 9 9 7 6 5 4 3 7 7 7 5 3 3 4 5 5 5 5 6 6 6 7 8 8 7
2 2 3 3 4 4 5 5 5 5 6 6 6 6 5 4 5 8 9 9 7 5 4 1 3 7 7 6 7 6 6 6 6 6 6 5 5 5 5 6 7 7 8
3 3 3 3 4 4 4 4 5 5 6 6 6 6 5 5 4 4 5 6 7 6 4 4 7 7 6 5 6 7 7 6 6 6 6 5 5 5 6 6 6 6 6
4 4 3 4 4 3 3 3 5 5 5 6 6 6 5 5 4 4 5 5 5 5 5 5 4 4 5 5 6 6 6 6 6 7 6 6 6 6 6 5 5 5 6
5 5 4 4 4 4 4 3 3 4 5 6 5 5 4 3 4 6 5 4 3 5 5 5 5 5 6 6 6 6 6 6 6 6 7 7 6 6 6 6 6 7 7
6 6 5 5 5 5 4 4 4 3 3 5 5 4 3 3 5 6 6 6 6 7 6 6 6 6 6 6 6 6 6 6 6 7 7 7 6 6 6 6 7 7 7
6 5 5 5 5 5 5 5 5 4 4 3 4 6 6 6 7 8 8 6 5 6 7 7 7 7 6 6 6 6 6 6 6 7 7 7 7 7 7 7 7 7 7
5 4 4 4 5 5 5 5 5 5 4 3 2 3 6 6 6 7 8 6 6 6 7 7 7 7 6 6 6 6 6 6 6 7 6 7 7 7 7 8 7 7 8
3 3 4 4 4 4 4 5 5 5 4 4 4 3 4 4 4 4 6 6 6 6 7 7 6 6 6 6 6 6 6 6 7 8 7 7 7 8 8 8 8 8 8
3 2 4 4 4 4 4 4 4 5 4 4 4 3 4 5 6 6 6 6 7 7 6 6 6 6 6 6 6 7 8 7 7 8 7 7 8 8 8 8 8 8 7
4 4 4 4 4 4 4 4 5 4 5 5 4 3 6 6 5 5 5 5 5 5 5 5 5 5 5 6 6 7 7 7 7 7 7 7 7 8 8 8 8 7 7
4 3 3 3 3 4 4 4 4 5 5 4 4 3 4 4 5 5 4 4 4 4 4 5 5 5 5 5 6 6 7 7 7 7 7 7 7 7 7 7 8 8 8
3 3 3 3 3 4 4 4 4 4 4 4 3 3 3 4 4 4 4 4 4 4 4 4 5 6 6 6 5 6 6 7 7 7 9 8 8 8 7 8 8 9 9
4 3 3 4 4 4 4 4 3 3 3 3 3 3 3 3 3 4 4 4 4 4 5 5 4 5 7 7 7 6 3 4 6 7 8 8 9 9 9 9 8 8 9
4 4 4 4 4 3 3 3 3 3 3 2 2 2 3 3 3 3 3 3 3 4 5 5 5 6 7 7 7 4 4 5 6 8 9 8 8 8 8 8 9 9 8
Wind_Direction
195 193 191 189 190 191 195 195 192 190 185 189 195 201 205 208 207 212 223 212 216 219 224 222 226 242 240 232 229 232 231 229 222 191 170 160 173 192 170 185 175 179 150
190 188 188 189 190 193 193 193 188 185 187 187 193 199 205 207 209 211 219 215 222 229 231 230 232 225 231 238 233 229 226 226 220 199 198 189 198 194 191 200 189 195 177
187 189 187 192 193 197 195 192 188 185 187 187 191 196 201 208 214 216 217 220 228 233 233 238 242 233 233 228 234 227 222 218 214 209 201 197 202 198 199 206 201 212 212
188 193 191 194 193 194 196 193 190 188 187 188 190 195 198 207 216 223 222 222 222 225 229 233 239 235 231 228 226 228 224 218 210 212 201 198 199 202 208 210 208 205 219
189 195 194 192 190 189 194 194 193 196 192 188 193 201 202 205 216 224 226 218 214 216 222 230 234 236 259 249 241 226 218 221 214 211 207 208 206 201 210 215 216 214 210
190 194 191 191 191 191 194 192 193 197 198 194 201 207 210 210 165 217 248 224 213 213 219 223 216 202 194 206 250 253 243 227 222 220 215 213 212 212 212 213 214 220 223
192 195 190 194 199 201 201 196 198 200 199 201 206 210 215 198 172 200 238 233 221 221 224 229 235 211 204 208 206 214 228 240 244 242 232 225 217 214 214 213 214 227 238
194 196 196 199 203 204 204 205 205 207 206 204 207 212 214 200 181 200 222 227 227 227 230 232 233 231 228 220 216 217 220 222 231 238 237 238 225 211 215 221 223 230 238
200 202 202 203 205 205 205 206 207 209 215 212 209 214 216 200 178 189 212 220 221 227 230 229 229 224 204 237 226 222 219 216 205 205 223 225 219 208 218 223 218 228 235
204 203 204 208 210 211 208 207 210 209 216 217 214 214 213 209 178 187 211 223 222 225 225 225 222 225 195 219 227 224 223 222 212 196 201 209 212 208 209 223 226 234 242
212 204 202 207 213 215 216 215 214 213 215 218 213 211 211 208 185 191 210 226 228 230 230 227 214 180 199 220 242 236 230 233 223 221 218 213 212 211 213 216 228 239 247
201 202 205 209 214 210 210 213 211 214 214 213 213 215 211 202 193 193 205 227 253 239 238 233 196 164 190 210 224 211 198 229 230 229 228 225 222 220 219 220 224 235 249
199 215 216 213 218 217 213 213 212 216 220 217 217 218 217 206 187 181 195 213 232 236 234 160 146 167 185 203 211 207 208 223 226 230 235 238 237 234 226 219 221 227 236
214 222 222 221 223 221 228 225 225 228 228 224 221 221 222 214 205 195 201 203 206 215 216 174 170 185 211 217 204 213 224 232 236 238 240 240 235 226 229 229 231 228 234
225 228 232 230 226 217 223 238 233 233 232 230 227 221 220 223 210 194 206 209 209 200 198 204 202 199 207 216 222 224 227 226 231 238 243 240 233 229 229 230 234 240 245
242 238 234 234 227 222 219 233 230 237 217 211 227 232 225 206 170 178 195 204 186 181 203 215 217 220 222 223 225 225 228 233 235 235 239 241 237 235 235 230 230 234 242
245 248 247 241 237 234 230 235 246 238 200 198 198 196 202 176 170 180 184 181 186 189 213 225 227 229 231 230 232 235 234 233 236 239 238 237 238 239 239 238 237 239 245
252 247 244 240 240 243 240 237 236 235 236 241 203 180 180 181 183 181 174 173 198 209 225 228 230 232 234 236 238 241 243 237 232 235 237 237 237 239 241 242 238 238 245
259 252 248 249 243 239 235 235 234 234 236 239 233 182 176 181 186 186 183 208 217 218 226 231 234 237 238 239 244 247 246 243 240 239 239 240 239 239 242 246 246 234 242
259 252 244 243 244 241 239 238 235 231 230 227 223 209 178 185 209 204 209 224 231 232 233 234 236 238 240 241 239 241 241 241 241 240 240 240 243 243 244 246 250 247 245
270 256 233 242 244 245 247 247 245 241 236 233 232 210 187 213 225 224 224 227 232 236 234 236 235 238 240 241 242 242 245 246 243 244 243 243 244 244 245 245 245 247 251
274 261 253 255 259 259 256 254 251 245 237 238 237 205 190 222 234 235 232 234 236 239 237 237 241 242 242 242 244 246 246 247 247 246 245 245 244 243 243 243 246 248 248
272 269 265 263 261 251 247 251 251 248 243 239 231 227 215 231 241 240 242 241 238 236 235 236 243 245 245 249 248 245 245 247 247 247 247 249 250 249 246 247 249 252 251
290 285 280 273 263 258 257 253 249 247 247 242 242 244 243 241 245 248 250 248 241 238 237 238 244 249 252 254 255 255 253 256 255 247 248 253 255 255 252 249 249 251 252
289 287 278 270 262 256 254 251 247 243 243 242 244 249 248 246 247 246 246 245 244 243 244 246 247 250 252 253 255 261 267 258 258 264 255 255 256 256 257 255 252 251 250
282 277 273 271 267 259 254 249 245 245 245 245 246 255 262 258 253 253 250 251 255 253 256 256 256 260 262 257 255 257 241 239 242 254 259 256 252 252 255 256 257 255 253
Height
1531 1533 1534 1535 1536 1538 1538 1539 1540 1541 1541 1542 1543 1543 1544 1544 1544 1543 1544 1543 1543 1543 1543 1543 1543 1543 1544 1544 1545 1545 1545 1545 1546 1546 1546 1546 1547 1547 1547 1547 1547 1546 1546
1530 1531 1532 1533 1534 1536 1537 1537 1538 1539 1539 1540 1540 1541 1541 1542 1542 1541 1542 1542 1542 1541 1541 1541 1541 1541 1541 1542 1542 1542 1542 1542 1543 1543 1543 1544 1544 1544 1544 1545 1545 1545 1545
1527 1528 1529 1531 1532 1533 1534 1535 1536 1536 1537 1538 1538 1539 1539 1539 1539 1539 1539 1539 1540 1540 1539 1539 1539 1539 1539 1539 1540 1540 1540 1540 1540 1541 1540 1541 1541 1542 1542 1543 1543 1542 1543
1524 1526 1527 1528 1529 1531 1532 1532 1533 1534 1535 1535 1536 1536 1536 1537 1537 1537 1537 1537 1537 1537 1537 1537 1537 1537 1536 1537 1537 1537 1537 1537 1537 1537 1537 1537 1538 1539 1539 1540 1540 1540 1540
1521 1523 1524 1525 1526 1528 1529 1530 1530 1531 1532 1532 1533 1533 1533 1533 1534 1534 1534 1534 1534 1534 1534 1534 1534 1533 1533 1533 1534 1534 1534 1534 1534 1534 1534 1534 1535 1535 1536 1537 1538 1538 1538
1517 1519 1521 1522 1523 1524 1525 1526 1527 1528 1528 1528 1529 1530 1530 1530 1530 1531 1531 1531 1531 1531 1531 1531 1531 1530 1530 1530 1530 1530 1530 1530 1531 1531 1531 1531 1531 1532 1533 1533 1534 1535 1535
1515 1516 1517 1519 1520 1521 1522 1522 1523 1524 1525 1525 1526 1527 1527 1526 1527 1528 1528 1528 1528 1528 1528 1528 1529 1528 1527 1526 1526 1526 1527 1527 1527 1528 1528 1527 1528 1528 1529 1530 1530 1531 1532
1512 1513 1514 1515 1516 1517 1517 1518 1519 1520 1521 1522 1522 1523 1523 1523 1524 1524 1525 1525 1525 1525 1525 1525 1525 1524 1524 1523 1523 1523 1523 1523 1523 1524 1524 1524 1524 1524 1525 1527 1527 1528 1528
1508 1509 1511 1512 1512 1512 1513 1514 1515 1516 1517 1518 1518 1519 1520 1520 1520 1521 1521 1521 1521 1522 1522 1521 1521 1520 1520 1520 1520 1519 1519 1519 1519 1519 1520 1520 1520 1521 1522 1523 1524 1524 1525
1505 1505 1507 1508 1508 1509 1509 1510 1511 1511 1513 1514 1514 1515 1515 1516 1516 1516 1517 1518 1518 1518 1517 1517 1516 1516 1516 1516 1516 1516 1516 1516 1516 1515 1516 1516 1517 1517 1518 1519 1520 1520 1521
1502 1502 1503 1504 1505 1506 1506 1506 1506 1507 1508 1509 1510 1510 1511 1511 1511 1512 1513 1513 1513 1513 1513 1513 1512 1512 1512 1512 1512 1513 1512 1512 1512 1513 1513 1513 1513 1514 1514 1514 1515 1516 1517
1498 1499 1499 1500 1500 1501 1501 1501 1502 1503 1504 1504 1505 1506 1506 1506 1506 1507 1508 1508 1508 1508 1508 1508 1508 1507 1507 1508 1508 1508 1509 1509 1509 1510 1510 1510 1510 1510 1510 1510 1510 1511 1511
1495 1495 1496 1496 1496 1497 1497 1497 1497 1498 1499 1500 1500 1501 1501 1501 1501 1502 1503 1503 1503 1503 1503 1504 1504 1504 1504 1504 1504 1505 1505 1505 1505 1506 1506 1506 1507 1506 1506 1506 1506 1506 1506
1491 1491 1492 1492 1492 1493 1493 1493 1493 1494 1494 1495 1495 1496 1497 1497 1497 1497 1497 1498 1498 1499 1499 1499 1500 1500 1500 1501 1501 1501 1501 1502 1502 1502 1502 1502 1502 1502 1502 1502 1502 1502 1502
1487 1488 1488 1489 1489 1489 1489 1489 1489 1489 1490 1490 1490 1491 1492 1492 1492 1492 1493 1494 1494 1495 1495 1495 1496 1496 1497 1497 1497 1498 1498 1498 1498 1498 1498 1498 1498 1498 1497 1498 1497 1497 1498
1484 1484 1484 1485 1485 1485 1485 1485 1484 1485 1485 1485 1485 1486 1486 1487 1488 1488 1489 1490 1490 1491 1492 1492 1493 1493 1493 1493 1494 1494 1494 1494 1494 1494 1494 1494 1493 1493 1493 1493 1493 1492 1492
1479 1480 1481 1481 1481 1480 1480 1480 1480 1481 1480 1480 1480 1481 1482 1482 1483 1484 1484 1485 1486 1487 1488 1488 1489 1489 1489 1489 1490 1490 1490 1489 1489 1489 1489 1489 1489 1489 1488 1488 1488 1488 1488
1476 1476 1476 1476 1476 1476 1476 1476 1476 1476 1475 1475 1476 1476 1477 1478 1479 1479 1479 1480 1481 1482 1483 1483 1484 1484 1485 1485 1485 1485 1485 1485 1485 1484 1484 1484 1484 1484 1484 1483 1483 1483 1483
1472 1472 1472 1472 1472 1472 1472 1472 1472 1471 1471 1472 1472 1472 1473 1474 1474 1475 1475 1476 1477 1477 1478 1479 1479 1479 1480 1480 1480 1480 1480 1480 1480 1480 1480 1479 1479 1479 1479 1478 1478 1477 1477
1468 1468 1468 1468 1468 1468 1468 1468 1468 1468 1468 1468 1468 1468 1469 1470 1470 1470 1471 1471 1472 1473 1473 1474 1474 1474 1475 1475 1475 1475 1475 1475 1475 1475 1475 1474 1474 1474 1473 1473 1473 1472 1472
1465 1464 1464 1464 1465 1464 1464 1464 1464 1464 1464 1464 1465 1465 1465 1466 1466 1467 1467 1467 1468 1468 1468 1469 1469 1469 1469 1470 1470 1470 1470 1470 1470 1470 1470 1469 1469 1468 1468 1468 1467 1467 1467
1463 1462 1461 1461 1461 1461 1461 1461 1461 1461 1461 1461 1462 1462 1461 1462 1463 1463 1463 1463 1464 1464 1464 1464 1464 1464 1464 1464 1465 1465 1465 1464 1464 1464 1464 1463 1463 1463 1462 1462 1462 1462 1461
1460 1459 1459 1458 1458 1458 1458 1458 1458 1458 1458 1458 1458 1458 1458 1458 1459 1459 1459 1459 1459 1459 1459 1459 1459 1459 1459 1459 1459 1459 1459 1458 1458 1458 1458 1458 1458 1457 1457 1456 1456 1456 1456
1458 1457 1456 1456 1456 1455 1455 1454 1454 1455 1455 1455 1455 1455 1455 1455 1455 1455 1455 1455 1455 1455 1454 1454 1454 1454 1453 1453 1453 1453 1453 1453 1453 1453 1452 1452 1452 1452 1451 1451 1450 1450 1450
1455 1455 1454 1453 1453 1452 1452 1452 1452 1452 1452 1452 1452 1452 1452 1452 1451 1452 1452 1451 1451 1451 1450 1450 1450 1449 1449 1448 1448 1448 1447 1446 1446 1446 1446 1446 1446 1445 1445 1445 1445 1445 1445
1452 1452 1451 1451 1450 1450 1450 1449 1449 1449 1449 1449 1449 1449 1449 1449 1449 1449 1448 1448 1447 1447 1446 1446 1445 1445 1444 1444 1443 1442 1441 1441 1440 1440 1440 1440 1440 1439 1439 1439 1439 1439 1439